User: anonymous   Login
Location: Buckeye Ditch
(40.9104°N, 122.9517°W)
Time: 23:05:54
(UTC+00:00)
Language:

CRYOSAT 2 - Orbit

View from above orbital plane
View from above orbital plane
View from above satellite
View from above satellite

Ground track
Ground track

The orbit data is extracted from the following two-line orbital elements,

1 36508U 10013A   24175.55938682  .00000218  00000-0  53437-4 0  9999
2 36508  92.0346 102.5738 0000327 213.1607 146.9579 14.51899306753086
Epoch (UTC): 23 June 2024 13:25:31
Eccentricity: 0.0000327
inclination: 92.0346°
perigee height: 719 km
apogee height: 719 km
right ascension of ascending node: 102.5738°
argument of perigee: 213.1607°
revolutions per day: 14.51899306
mean anomaly at epoch: 146.9579°
orbit number at epoch: 75308

The dashed part of the orbit path shows where the satellite is in the earth's shadow,  

DLR